STARLINK-33940, 63831

Orbit data source: Space-Track

STARLINK-33940, 63831 is a payload satellite owned by SpaceX/Seattle (US) in LEO that was launched on Sun, 04 May 2025 UTC via an FALCON 9 launch vehicle from the Air Force Eastern Test Range (AFETR). Payload-class satellites include a variety of spacecraft equipped with specific instruments for various scientific and technological missions. These include communications satellites like Starlink; space stations such as the ISS; scientific satellites like the Hubble; Earth observation satellites from companies like Planet Labs, Umbra, and HawkEye 360; GPS; miniature CubeSats for education and research; and military/defense satellites.

Loading next visibility...
Identifier
63831, 2025-092AD
Orbit
LEO
Country
Flag of USUS
Related business
Manufacturer
SpaceX/Seattle
Mission
Operational spacecraft
Bus & Motor
STARLINK V2MO, Unknown motor
Mass
575 kg wet, ~530 kg dry
Launch date (UTC)
2025-05-04 (6 months ago)
Launch vehicle
FALCON 9
Launch site
Air Force Eastern Test Range (AFETR)
Object type
Payload
Rocket body
Debris
Shape & HBR
Unknown shape, 17.7 m
Radar Cross Section
Large (>1 m²)

Expand to show TLE details & history
Last TLE update: 3 days ago

TLE from 3 days ago
0 STARLINK-33940
1 63831U 25092AD  25305.33323597  .00035668  00000-0  12991-2 0  9991
2 63831  42.9995 177.4778 0001933 275.2513  84.8118 15.27586479 29031
Epoch: 2025-11-01T07:59Z
TLE epoch observation values (Epoch: 2025-11-01T07:59:51.587Z)
Latitude
-0.00004°
Longitude
16.64799°
Altitude
482.685 km
Speed
7.626 km/s
True Right ascension
11h 49m 54s
True Declination
0° 00' 00"
Sunlit
Object was in daylight at epoch
Visualization orbit readout
Latitude
Unknown
Longitude
Unknown
Altitude
Unknown
Speed
Unknown
Apparent Right ascension
Unknown
Apparent Declination
Unknown
Sunlit
N/A
Visualization observer readout
Local Sidereal Time
16:26:23
Azimuth
Unknown
Elevation
Unknown
Doppler factor
Unknown
Orbital elements
Apogee altitude
486.302 km
Perigee altitude
483.648 km
Semi-major axis
6,863.112 km
Eccentricity
0.00019
Inclination
42.9995°
RAAN
177.4778°
Arg. of periapsis
275.2513°
True anomaly
84.83386°
Mean anomaly
84.8118°
Eccentric anomaly
84.82283°
Mean motion
3.81735 °/min
Orbital period
94.31 mins
BSTAR
0.0012991
Loading maneuver chart data...
Computing Atmospheric mass density...
Loading historical data...
Loading historical data...
Loading historical data...
Loading historical data...
Loading historical data...
Loading historical data...
Loading historical data...

Documentation

Showing up to 5 results
|